{"data":{"norad_id":67365,"intl_designator":"2026-004C","name":"LEMUR-2-MARIO-SOUSA","alt_names":[],"object_type":"PAYLOAD","status":"ACTIVE","operator":null,"country":"US","launch_date":"2026-01-11","launch_site_code":"AFWTR","launch_vehicle":null,"mission":null,"orbit_class":"UNKNOWN","rcs_meters":null,"size_class":null,"mass_kg":null,"dimensions":null,"purposes":["earth_obs"],"wikipedia_slug":null,"has_3d_model":false,"image_url":null,"decayed_at":null,"tle_current":{"epoch":"2026-05-24T23:48:14.029056Z","epoch_age_seconds":69125,"freshness":"FRESH","line1":"1 67365U 26004C   26144.99182904  .00003848  00000+0  42184-3 0  9992","line2":"2 67365  97.7991 143.9080 0007404 206.6688 153.4148 14.88295029 19843","mean_motion":14.88295029,"eccentricity":0.0007404,"inclination_deg":97.7991,"raan_deg":143.908,"arg_perigee_deg":206.6688,"mean_anomaly_deg":153.4148,"bstar":0.00042184,"rev_number":1984,"period_min":96.755009721933,"perigee_km":598.09341779791,"apogee_km":608.43147409747,"semimajor_km":6981.3994459477,"source":"CELESTRAK","updated_at":"2026-05-25T13:38:13.578407Z"}}}